When you browse on this site, cookies collect data to enhance your experience and personalize the content and advertising you see.
Visit our Privacy Policy to learn more. By continuing to use the site, you agree to this use of cookies and data.
  • en France
  • Liste des pays
  • À 7 jours
  • Température de l'eau
  • Carte météo
  • Widgets météo
  • user-avatar
    Se connecter

    Météo par heure à Zadabrow

    Ce jour, 25 Février, Mardi

    Heure Température Précipitation Vent Pression Humidité
    00:00 +1°C° 0.3 mm 4 m/s 739 mmHg 87%
    01:00 0°C° 0.3 mm 5 m/s 738 mmHg 91%
    02:00 0°C° 1.5 mm 5 m/s 737 mmHg 93%
    03:00 0°C° 1.5 mm 5 m/s 736 mmHg 94%
    04:00 -1°C° 1.5 mm 6 m/s 735 mmHg 95%
    05:00 +1°C° 0.6 mm 6 m/s 734 mmHg 94%
    06:00 +2°C° 0.6 mm 6 m/s 734 mmHg 93%
    07:00 +4°C° 0.6 mm 6 m/s 734 mmHg 91%
    08:00 +4°C° 0.1 mm 6 m/s 733 mmHg 91%
    09:00 +5°C° 0.1 mm 6 m/s 733 mmHg 90%
    10:00 +7°C° 0.1 mm 6 m/s 733 mmHg 90%
    11:00 +7°C° 0.1 mm 6 m/s 733 mmHg 88%
    12:00 +7°C° 0.1 mm 6 m/s 732 mmHg 86%
    13:00 +8°C° 0.1 mm 6 m/s 732 mmHg 83%
    14:00 +8°C° 0.1 mm 6 m/s 732 mmHg 83%
    15:00 +8°C° 0.1 mm 6 m/s 731 mmHg 83%
    16:00 +8°C° 0.1 mm 6 m/s 731 mmHg 82%
    17:00 +8°C° 0.1 mm 6 m/s 731 mmHg 83%
    18:00 +7°C° 0.1 mm 6 m/s 730 mmHg 84%
    19:00 +7°C° 0.1 mm 6 m/s 730 mmHg 86%
    20:00 +7°C° 0.5 mm 6 m/s 730 mmHg 86%
    21:00 +5°C° 0.5 mm 6 m/s 730 mmHg 87%
    22:00 +5°C° 0.5 mm 6 m/s 730 mmHg 88%
    23:00 +5°C° 0.2 mm 5 m/s 730 mmHg 85%

    Demain, 26 Février, Mercredi

    Heure Température Précipitation Vent Pression Humidité
    00:00 +5°C° 0.2 mm 4 m/s 730 mmHg 82%
    01:00 +4°C° 0.2 mm 3 m/s 730 mmHg 78%
    02:00 +3°C° 0 mm 3 m/s 730 mmHg 80%
    03:00 +3°C° 0 mm 3 m/s 729 mmHg 81%
    04:00 +2°C° 0 mm 3 m/s 729 mmHg 82%
    05:00 +2°C° 0 mm 3 m/s 728 mmHg 83%
    06:00 +3°C° 0 mm 2 m/s 728 mmHg 85%
    07:00 +3°C° 0 mm 2 m/s 728 mmHg 86%
    08:00 +3°C° 0 mm 3 m/s 728 mmHg 80%
    09:00 +4°C° 0 mm 3 m/s 727 mmHg 73%
    10:00 +5°C° 0 mm 3 m/s 727 mmHg 67%
    11:00 +5°C° 0 mm 4 m/s 727 mmHg 66%
    12:00 +6°C° 0 mm 4 m/s 727 mmHg 64%
    13:00 +6°C° 0 mm 4 m/s 727 mmHg 63%
    14:00 +6°C° 0.1 mm 4 m/s 727 mmHg 64%
    15:00 +6°C° 0.1 mm 4 m/s 727 mmHg 65%
    16:00 +5°C° 0.1 mm 4 m/s 727 mmHg 66%
    17:00 +3°C° 0.1 mm 5 m/s 727 mmHg 70%
    18:00 +2°C° 0.1 mm 5 m/s 728 mmHg 73%
    19:00 +1°C° 0.1 mm 6 m/s 728 mmHg 76%
    20:00 0°C° 0 mm 5 m/s 728 mmHg 76%
    21:00 0°C° 0 mm 4 m/s 729 mmHg 75%
    22:00 +1°C° 0 mm 3 m/s 729 mmHg 74%
    23:00 -1°C° 0 mm 4 m/s 729 mmHg 75%

    Après-demain, 27 Février, Jeudi

    Heure Température Précipitation Vent Pression Humidité
    00:00 -1°C° 0 mm 4 m/s 729 mmHg 76%
    01:00 -1°C° 0 mm 4 m/s 730 mmHg 77%
    02:00 -1°C° 0.1 mm 5 m/s 730 mmHg 80%
    03:00 -1°C° 0.1 mm 5 m/s 730 mmHg 84%
    04:00 -3°C° 0.1 mm 6 m/s 730 mmHg 88%
    05:00 -2°C° 0 mm 6 m/s 730 mmHg 85%
    06:00 -2°C° 0 mm 6 m/s 731 mmHg 82%
    07:00 -2°C° 0 mm 6 m/s 731 mmHg 80%
    08:00 -2°C° 0 mm 7 m/s 731 mmHg 77%
    09:00 -2°C° 0 mm 7 m/s 732 mmHg 74%
    10:00 -2°C° 0 mm 7 m/s 732 mmHg 71%
    11:00 -1°C° 0 mm 7 m/s 732 mmHg 70%
    12:00 -1°C° 0 mm 7 m/s 733 mmHg 69%
    13:00 -1°C° 0 mm 7 m/s 733 mmHg 68%
    14:00 -1°C° 0 mm 6 m/s 733 mmHg 67%
    15:00 -1°C° 0 mm 6 m/s 733 mmHg 66%
    16:00 -1°C° 0 mm 6 m/s 733 mmHg 65%
    17:00 -1°C° 0 mm 5 m/s 733 mmHg 69%
    18:00 0°C° 0 mm 3 m/s 733 mmHg 73%
    19:00 -1°C° 0 mm 2 m/s 733 mmHg 77%
    20:00 -1°C° 0 mm 2 m/s 733 mmHg 79%
    21:00 -1°C° 0 mm 2 m/s 733 mmHg 81%
    22:00 -1°C° 0 mm 2 m/s 733 mmHg 84%
    23:00 -1°C° 0 mm 2 m/s 733 mmHg 84%

    28 Février, Vendredi

    Heure Température Précipitation Vent Pression Humidité
    00:00 -1°C° 0 mm 2 m/s 733 mmHg 85%
    01:00 +1°C° 0 mm 1 m/s 733 mmHg 86%
    02:00 +1°C° 0 mm 1 m/s 733 mmHg 86%
    03:00 +1°C° 0 mm 1 m/s 733 mmHg 85%
    04:00 +1°C° 0 mm 1 m/s 733 mmHg 85%
    05:00 +1°C° 0 mm 1 m/s 734 mmHg 85%
    06:00 +1°C° 0 mm 1 m/s 734 mmHg 85%
    07:00 +1°C° 0 mm 1 m/s 735 mmHg 85%
    08:00 +1°C° 0 mm 2 m/s 735 mmHg 79%
    09:00 +1°C° 0 mm 3 m/s 736 mmHg 73%
    10:00 +1°C° 0 mm 4 m/s 736 mmHg 67%
    11:00 +1°C° 0 mm 5 m/s 736 mmHg 64%
    12:00 +2°C° 0 mm 6 m/s 737 mmHg 61%
    13:00 +2°C° 0 mm 6 m/s 737 mmHg 57%
    14:00 +2°C° 0.2 mm 6 m/s 738 mmHg 63%
    15:00 +1°C° 0.2 mm 6 m/s 738 mmHg 68%
    16:00 -1°C° 0.2 mm 6 m/s 738 mmHg 73%
    17:00 -2°C° 0.1 mm 6 m/s 739 mmHg 76%
    18:00 -1°C° 0.1 mm 5 m/s 739 mmHg 78%
    19:00 -2°C° 0.1 mm 4 m/s 740 mmHg 80%
    20:00 -3°C° 0 mm 4 m/s 741 mmHg 77%
    21:00 -4°C° 0 mm 5 m/s 741 mmHg 73%
    22:00 -5°C° 0 mm 5 m/s 742 mmHg 70%
    23:00 -4°C° 0 mm 4 m/s 742 mmHg 69%

    29 Février, Samedi

    Heure Température Précipitation Vent Pression Humidité
    00:00 -4°C° 0 mm 4 m/s 742 mmHg 69%
    01:00 -4°C° 0 mm 4 m/s 742 mmHg 68%
    02:00 -4°C° 0 mm 3 m/s 742 mmHg 72%
    03:00 -4°C° 0 mm 3 m/s 742 mmHg 76%
    04:00 -4°C° 0 mm 3 m/s 741 mmHg 79%
    05:00 -4°C° 0 mm 3 m/s 741 mmHg 80%
    06:00 -2°C° 0 mm 3 m/s 741 mmHg 81%
    07:00 -2°C° 0 mm 2 m/s 741 mmHg 82%
    08:00 -1°C° 0 mm 2 m/s 741 mmHg 76%
    09:00 +1°C° 0 mm 2 m/s 741 mmHg 69%
    10:00 +2°C° 0 mm 2 m/s 740 mmHg 62%
    11:00 +2°C° 0 mm 3 m/s 740 mmHg 59%
    12:00 +3°C° 0 mm 3 m/s 739 mmHg 56%
    13:00 +4°C° 0 mm 4 m/s 738 mmHg 53%
    14:00 +3°C° 0 mm 4 m/s 737 mmHg 55%
    15:00 +3°C° 0 mm 4 m/s 736 mmHg 57%
    16:00 +3°C° 0 mm 4 m/s 736 mmHg 59%
    17:00 +1°C° 0 mm 4 m/s 735 mmHg 64%
    18:00 +1°C° 0 mm 5 m/s 734 mmHg 69%
    19:00 0°C° 0 mm 5 m/s 734 mmHg 74%
    20:00 +1°C° 0.1 mm 5 m/s 733 mmHg 77%
    21:00 +1°C° 0.1 mm 6 m/s 733 mmHg 81%
    22:00 +1°C° 0.1 mm 6 m/s 732 mmHg 85%
    23:00 +1°C° 0.5 mm 6 m/s 732 mmHg 86%

    1 Mars, Dimanche

    Heure Température Précipitation Vent Pression Humidité
    00:00 +2°C° 0.5 mm 6 m/s 732 mmHg 88%
    01:00 +2°C° 0.5 mm 6 m/s 732 mmHg 90%
    02:00 +2°C° 0.1 mm 5 m/s 732 mmHg 91%
    03:00 +3°C° 0.1 mm 4 m/s 732 mmHg 91%
    04:00 +2°C° 0.1 mm 3 m/s 733 mmHg 92%
    05:00 +2°C° 0 mm 3 m/s 733 mmHg 91%
    06:00 +2°C° 0 mm 3 m/s 732 mmHg 91%
    07:00 +1°C° 0 mm 4 m/s 732 mmHg 91%
    08:00 +2°C° 0 mm 5 m/s 732 mmHg 82%
    09:00 +3°C° 0 mm 6 m/s 732 mmHg 74%
    10:00 +5°C° 0 mm 7 m/s 732 mmHg 65%
    11:00 +4°C° 0.3 mm 7 m/s 732 mmHg 68%
    12:00 +2°C° 0.3 mm 8 m/s 732 mmHg 71%
    13:00 +2°C° 0.3 mm 8 m/s 732 mmHg 75%
    14:00 +3°C° 0 mm 7 m/s 733 mmHg 68%
    15:00 +4°C° 0 mm 6 m/s 733 mmHg 61%
    16:00 +5°C° 0 mm 5 m/s 734 mmHg 54%
    17:00 +4°C° 0 mm 4 m/s 734 mmHg 59%
    18:00 +3°C° 0 mm 3 m/s 734 mmHg 63%
    19:00 +3°C° 0 mm 2 m/s 735 mmHg 68%
    20:00 +3°C° 0 mm 2 m/s 735 mmHg 70%
    21:00 +1°C° 0 mm 3 m/s 736 mmHg 72%
    22:00 +1°C° 0 mm 3 m/s 736 mmHg 74%
    23:00 +2°C° 0 mm 2 m/s 737 mmHg 75%
    Voir plus